datetime,ave air temp
1990-10-01,47.84
1990-10-02,38.48
1990-10-03,42.98
1990-10-04,49.1
1990-10-05,37.58
1990-10-06,30.92
1990-10-07,33.44
1990-10-08,39.38
1990-10-09,46.58
1990-10-10,38.84
1990-10-11,39.56
1990-10-12,41.36
1990-10-13,35.06
1990-10-14,39.92
1990-10-15,42.8
1990-10-16,33.8
1990-10-17,41.72
1990-10-18,35.96
1990-10-19,31.64
1990-10-20,34.88
1990-10-21,42.08
1990-10-22,39.56
1990-10-23,42.44
1990-10-24,48.92
1990-10-25,49.46
1990-10-26,46.04
1990-10-27,48.56
1990-10-28,37.04
1990-10-29,37.04
1990-10-30,39.92
1990-10-31,31.82
1990-11-01,26.96
1990-11-02,28.04
1990-11-03,37.04
1990-11-04,39.2
1990-11-05,29.84
1990-11-06,27.68
1990-11-07,35.24
1990-11-08,41.18
1990-11-09,40.64
1990-11-10,45.86
1990-11-11,43.52
1990-11-12,48.2
1990-11-13,37.94
1990-11-14,28.4
1990-11-15,31.46
1990-11-16,34.16
1990-11-17,33.8
1990-11-18,34.88
1990-11-19,30.02
1990-11-20,27.32
1990-11-21,31.46
1990-11-22,32.54
1990-11-23,39.38
1990-11-24,42.08
1990-11-25,29.48
1990-11-26,23.9
1990-11-27,26.42
1990-11-28,27.32
1990-11-29,31.82
1990-11-30,25.16
1990-12-01,23.72
1990-12-02,26.42
1990-12-03,33.26
1990-12-04,32.36
1990-12-05,24.26
1990-12-06,28.22
1990-12-07,33.44
1990-12-08,43.88
1990-12-09,42.08
1990-12-10,32.54
1990-12-11,23.54
1990-12-12,23.72
1990-12-13,18.68
1990-12-14,21.92
1990-12-15,25.88
1990-12-16,24.98
1990-12-17,30.92
1990-12-18,24.98
1990-12-19,7.16
1990-12-20,-10.66
1990-12-21,-11.92
1990-12-22,6.08
1990-12-23,12.92
1990-12-24,16.7
1990-12-25,23.36
1990-12-26,26.96
1990-12-27,24.62
1990-12-28,17.96
1990-12-29,5.0
1990-12-30,17.6
1990-12-31,24.26
1991-01-01,25.16
1991-01-02,25.7
1991-01-03,30.02
1991-01-04,25.34
1991-01-05,26.6
1991-01-06,32.54
1991-01-07,29.3
1991-01-08,24.98
1991-01-09,28.4
1991-01-10,32.72
1991-01-11,35.78
1991-01-12,38.12
1991-01-13,36.14
1991-01-14,36.32
1991-01-15,30.92
1991-01-16,30.2
1991-01-17,34.16
1991-01-18,34.7
1991-01-19,26.42
1991-01-20,28.4
1991-01-21,29.66
1991-01-22,29.48
1991-01-23,26.24
1991-01-24,22.64
1991-01-25,26.24
1991-01-26,27.86
1991-01-27,23.36
1991-01-28,20.48
1991-01-29,25.52
1991-01-30,31.28
1991-01-31,39.92
1991-02-01,42.26
1991-02-02,33.44
1991-02-03,34.34
1991-02-04,37.4
1991-02-05,34.7
1991-02-06,37.76
1991-02-07,37.04
1991-02-08,36.32
1991-02-09,34.52
1991-02-10,36.32
1991-02-11,37.94
1991-02-12,32.18
1991-02-13,37.4
1991-02-14,42.44
1991-02-15,38.12
1991-02-16,32.36
1991-02-17,29.66
1991-02-18,32.18
1991-02-19,36.14
1991-02-20,35.78
1991-02-21,37.4
1991-02-22,33.98
1991-02-23,36.14
1991-02-24,36.14
1991-02-25,38.84
1991-02-26,39.02
1991-02-27,38.12
1991-02-28,34.52
1991-03-01,33.08
1991-03-02,31.1
1991-03-03,33.98
1991-03-04,30.74
1991-03-05,21.56
1991-03-06,24.44
1991-03-07,25.52
1991-03-08,27.68
1991-03-09,31.64
1991-03-10,24.08
1991-03-11,22.64
1991-03-12,28.4
1991-03-13,26.96
1991-03-14,24.8
1991-03-15,27.86
1991-03-16,29.12
1991-03-17,36.14
1991-03-18,30.38
1991-03-19,24.98
1991-03-20,29.12
1991-03-21,27.86
1991-03-22,26.78
1991-03-23,29.48
1991-03-24,29.12
1991-03-25,26.96
1991-03-26,29.12
1991-03-27,30.2
1991-03-28,30.56
1991-03-29,35.96
1991-03-30,40.64
1991-03-31,39.56
1991-04-01,34.7
1991-04-02,33.26
1991-04-03,33.26
1991-04-04,39.92
1991-04-05,32.18
1991-04-06,32.18
1991-04-07,27.5
1991-04-08,27.32
1991-04-09,28.94
1991-04-10,22.64
1991-04-11,29.48
1991-04-12,37.76
1991-04-13,37.94
1991-04-14,30.92
1991-04-15,31.28
1991-04-16,31.46
1991-04-17,32.9
1991-04-18,34.34
1991-04-19,38.84
1991-04-20,37.22
1991-04-21,39.02
1991-04-22,41.18
1991-04-23,37.04
1991-04-24,29.66
1991-04-25,28.4
1991-04-26,28.76
1991-04-27,30.56
1991-04-28,32.0
1991-04-29,36.68
1991-04-30,40.1
1991-05-01,42.62
1991-05-02,36.14
1991-05-03,37.76
1991-05-04,41.72
1991-05-05,43.88
1991-05-06,37.58
1991-05-07,39.02
1991-05-08,30.74
1991-05-09,29.66
1991-05-10,32.18
1991-05-11,38.48
1991-05-12,41.36
1991-05-13,35.6
1991-05-14,38.3
1991-05-15,41.72
1991-05-16,39.02
1991-05-17,30.2
1991-05-18,32.36
1991-05-19,34.16
1991-05-20,44.96
1991-05-21,46.22
1991-05-22,46.4
1991-05-23,45.32
1991-05-24,42.62
1991-05-25,37.58
1991-05-26,38.48
1991-05-27,41.18
1991-05-28,38.12
1991-05-29,34.16
1991-05-30,33.26
1991-05-31,44.42
1991-06-01,51.08
1991-06-02,49.82
1991-06-03,43.88
1991-06-04,37.76
1991-06-05,38.3
1991-06-06,41.72
1991-06-07,47.12
1991-06-08,49.64
1991-06-09,57.2
1991-06-10,59.0
1991-06-11,51.08
1991-06-12,40.64
1991-06-13,37.22
1991-06-14,43.34
1991-06-15,45.68
1991-06-16,40.64
1991-06-17,45.5
1991-06-18,47.84
1991-06-19,39.38
1991-06-20,41.72
1991-06-21,43.7
1991-06-22,45.14
1991-06-23,44.78
1991-06-24,46.04
1991-06-25,45.32
1991-06-26,47.48
1991-06-27,46.04
1991-06-28,46.22
1991-06-29,46.94
1991-06-30,49.64
1991-07-01,58.64
1991-07-02,67.28
1991-07-03,69.26
1991-07-04,63.68
1991-07-05,58.46
1991-07-06,58.28
1991-07-07,61.16
1991-07-08,58.64
1991-07-09,52.34
1991-07-10,53.42
1991-07-11,58.64
1991-07-12,63.14
1991-07-13,58.1
1991-07-14,54.14
1991-07-15,53.6
1991-07-16,49.46
1991-07-17,51.8
1991-07-18,55.22
1991-07-19,55.94
1991-07-20,55.94
1991-07-21,57.56
1991-07-22,65.66
1991-07-23,62.78
1991-07-24,60.08
1991-07-25,54.14
1991-07-26,55.22
1991-07-27,61.16
1991-07-28,63.14
1991-07-29,60.44
1991-07-30,61.34
1991-07-31,60.26
1991-08-01,54.32
1991-08-02,59.0
1991-08-03,62.42
1991-08-04,59.0
1991-08-05,59.18
1991-08-06,58.1
1991-08-07,59.54
1991-08-08,62.42
1991-08-09,51.62
1991-08-10,49.64
1991-08-11,54.32
1991-08-12,57.74
1991-08-13,58.46
1991-08-14,60.08
1991-08-15,58.46
1991-08-16,58.46
1991-08-17,59.72
1991-08-18,60.62
1991-08-19,64.04
1991-08-20,62.78
1991-08-21,62.96
1991-08-22,61.88
1991-08-23,56.84
1991-08-24,54.14
1991-08-25,49.28
1991-08-26,54.5
1991-08-27,50.18
1991-08-28,49.64
1991-08-29,56.84
1991-08-30,57.02
1991-08-31,53.06
1991-09-01,52.16
1991-09-02,55.04
1991-09-03,62.42
1991-09-04,64.76
1991-09-05,64.22
1991-09-06,60.08
1991-09-07,51.08
1991-09-08,45.14
1991-09-09,46.58
1991-09-10,48.02
1991-09-11,51.08
1991-09-12,62.96
1991-09-13,49.82
1991-09-14,48.74
1991-09-15,55.58
1991-09-16,61.88
1991-09-17,62.6
1991-09-18,64.22
1991-09-19,62.24
1991-09-20,48.56
1991-09-21,44.96
1991-09-22,51.98
1991-09-23,56.66
1991-09-24,62.42
1991-09-25,63.86
1991-09-26,58.64
1991-09-27,55.58
1991-09-28,53.6
1991-09-29,57.2
1991-09-30,57.92
1991-10-01,55.4
1991-10-02,51.62
1991-10-03,53.42
1991-10-04,54.32
1991-10-05,57.38
1991-10-06,53.06
1991-10-07,47.84
1991-10-08,50.9
1991-10-09,56.66
1991-10-10,56.84
1991-10-11,57.2
1991-10-12,52.7
1991-10-13,51.62
1991-10-14,57.92
1991-10-15,54.68
1991-10-16,48.56
1991-10-17,42.62
1991-10-18,45.32
1991-10-19,46.22
1991-10-20,48.38
1991-10-21,42.44
1991-10-22,29.3
1991-10-23,31.28
1991-10-24,31.64
1991-10-25,33.44
1991-10-26,30.2
1991-10-27,25.34
1991-10-28,28.22
1991-10-29,28.4
1991-10-30,27.5
1991-10-31,35.24
1991-11-01,35.78
1991-11-02,36.68
1991-11-03,42.26
1991-11-04,43.88
1991-11-05,45.32
1991-11-06,48.02
1991-11-07,47.3
1991-11-08,42.26
1991-11-09,39.38
1991-11-10,39.2
1991-11-11,45.5
1991-11-12,43.88
1991-11-13,31.64
1991-11-14,26.96
1991-11-15,27.32
1991-11-16,35.24
1991-11-17,31.1
1991-11-18,30.2
1991-11-19,33.8
1991-11-20,32.0
1991-11-21,26.06
1991-11-22,23.36
1991-11-23,35.96
1991-11-24,38.48
1991-11-25,38.48
1991-11-26,35.24
1991-11-27,26.6
1991-11-28,26.78
1991-11-29,20.12
1991-11-30,19.94
1991-12-01,26.78
1991-12-02,31.46
1991-12-03,30.56
1991-12-04,33.98
1991-12-05,36.68
1991-12-06,34.52
1991-12-07,27.5
1991-12-08,26.78
1991-12-09,30.02
1991-12-10,26.96
1991-12-11,26.24
1991-12-12,31.46
1991-12-13,28.04
1991-12-14,30.56
1991-12-15,33.44
1991-12-16,34.88
1991-12-17,35.42
1991-12-18,27.86
1991-12-19,22.82
1991-12-20,25.52
1991-12-21,32.9
1991-12-22,29.66
1991-12-23,33.08
1991-12-24,30.74
1991-12-25,35.42
1991-12-26,38.48
1991-12-27,38.66
1991-12-28,32.36
1991-12-29,30.38
1991-12-30,26.6
1991-12-31,30.38
1992-01-01,30.38
1992-01-02,33.98
1992-01-03,32.0
1992-01-04,28.76
1992-01-05,31.82
1992-01-06,27.86
1992-01-07,25.7
1992-01-08,26.78
1992-01-09,35.24
1992-01-10,31.46
1992-01-11,23.72
1992-01-12,21.38
1992-01-13,30.2
1992-01-14,30.38
1992-01-15,36.86
1992-01-16,31.46
1992-01-17,32.72
1992-01-18,35.78
1992-01-19,32.0
1992-01-20,30.2
1992-01-21,30.56
1992-01-22,31.46
1992-01-23,36.68
1992-01-24,41.36
1992-01-25,31.82
1992-01-26,31.64
1992-01-27,36.86
1992-01-28,35.42
1992-01-29,38.84
1992-01-30,45.32
1992-01-31,39.38
1992-02-01,30.2
1992-02-02,30.2
1992-02-03,36.68
1992-02-04,35.24
1992-02-05,32.36
1992-02-06,32.0
1992-02-07,31.1
1992-02-08,33.44
1992-02-09,37.04
1992-02-10,37.22
1992-02-11,36.14
1992-02-12,37.04
1992-02-13,32.72
1992-02-14,30.2
1992-02-15,26.96
1992-02-16,28.94
1992-02-17,28.4
1992-02-18,32.72
1992-02-19,36.68
1992-02-20,34.34
1992-02-21,36.68
1992-02-22,33.08
1992-02-23,35.96
1992-02-24,41.18
1992-02-25,45.68
1992-02-26,42.62
1992-02-27,42.44
1992-02-28,39.38
1992-02-29,38.3
1992-03-01,37.94
1992-03-02,35.6
1992-03-03,35.24
1992-03-04,35.06
1992-03-05,36.32
1992-03-06,32.72
1992-03-07,34.7
1992-03-08,33.8
1992-03-09,35.42
1992-03-10,37.76
1992-03-11,39.56
1992-03-12,41.9
1992-03-13,41.72
1992-03-14,39.92
1992-03-15,33.08
1992-03-16,31.82
1992-03-17,31.46
1992-03-18,32.54
1992-03-19,36.86
1992-03-20,39.02
1992-03-21,39.74
1992-03-22,36.86
1992-03-23,35.78
1992-03-24,38.12
1992-03-25,40.64
1992-03-26,35.78
1992-03-27,34.7
1992-03-28,39.38
1992-03-29,41.54
1992-03-30,39.56
1992-03-31,44.24
1992-04-01,47.84
1992-04-02,49.82
1992-04-03,39.92
1992-04-04,28.4
1992-04-05,28.22
1992-04-06,29.84
1992-04-07,35.96
1992-04-08,36.86
1992-04-09,38.84
1992-04-10,41.18
1992-04-11,42.8
1992-04-12,39.38
1992-04-13,39.38
1992-04-14,41.54
1992-04-15,40.28
1992-04-16,42.62
1992-04-17,35.24
1992-04-18,36.86
1992-04-19,44.78
1992-04-20,41.18
1992-04-21,32.36
1992-04-22,28.76
1992-04-23,37.58
1992-04-24,48.56
1992-04-25,49.64
1992-04-26,47.3
1992-04-27,49.64
1992-04-28,53.24
1992-04-29,46.58
1992-04-30,36.32
1992-05-01,40.28
1992-05-02,49.28
1992-05-03,54.68
1992-05-04,57.2
1992-05-05,59.18
1992-05-06,59.36
1992-05-07,58.46
1992-05-08,45.86
1992-05-09,43.34
1992-05-10,45.68
1992-05-11,40.82
1992-05-12,45.68
1992-05-13,51.44
1992-05-14,50.9
1992-05-15,48.74
1992-05-16,52.52
1992-05-17,52.52
1992-05-18,47.12
1992-05-19,43.16
1992-05-20,39.38
1992-05-21,43.52
1992-05-22,52.7
1992-05-23,57.56
1992-05-24,61.88
1992-05-25,55.76
1992-05-26,49.46
1992-05-27,48.38
1992-05-28,46.22
1992-05-29,52.34
1992-05-30,57.38
1992-05-31,60.8
1992-06-01,57.2
1992-06-02,57.38
1992-06-03,57.56
1992-06-04,51.26
1992-06-05,51.08
1992-06-06,53.6
1992-06-07,51.08
1992-06-08,52.88
1992-06-09,49.82
1992-06-10,51.08
1992-06-11,45.14
1992-06-12,35.6
1992-06-13,35.6
1992-06-14,37.94
1992-06-15,39.38
1992-06-16,44.42
1992-06-17,52.7
1992-06-18,56.3
1992-06-19,57.56
1992-06-20,59.72
1992-06-21,66.74
1992-06-22,71.06
1992-06-23,67.1
1992-06-24,60.62
1992-06-25,58.64
1992-06-26,59.72
1992-06-27,61.16
1992-06-28,52.7
1992-06-29,43.52
1992-06-30,44.96
1992-07-01,48.38
1992-07-02,51.26
1992-07-03,52.88
1992-07-04,48.74
1992-07-05,45.86
1992-07-06,47.3
1992-07-07,49.82
1992-07-08,51.26
1992-07-09,54.32
1992-07-10,54.5
1992-07-11,55.76
1992-07-12,56.66
1992-07-13,58.46
1992-07-14,57.2
1992-07-15,60.26
1992-07-16,66.02
1992-07-17,63.32
1992-07-18,61.88
1992-07-19,60.26
1992-07-20,54.68
1992-07-21,54.68
1992-07-22,45.68
1992-07-23,47.84
1992-07-24,54.32
1992-07-25,60.26
1992-07-26,63.5
1992-07-27,63.86
1992-07-28,63.32
1992-07-29,63.68
1992-07-30,67.46
1992-07-31,65.12
1992-08-01,62.06
1992-08-02,61.16
1992-08-03,59.72
1992-08-04,55.22
1992-08-05,55.94
1992-08-06,55.4
1992-08-07,53.06
1992-08-08,52.16
1992-08-09,57.38
1992-08-10,66.02
1992-08-11,71.42
1992-08-12,67.46
1992-08-13,69.8
1992-08-14,68.54
1992-08-15,66.02
1992-08-16,65.84
1992-08-17,69.98
1992-08-18,67.1
1992-08-19,63.32
1992-08-20,57.2
1992-08-21,47.84
1992-08-22,43.88
1992-08-23,47.66
1992-08-24,51.98
1992-08-25,53.96
1992-08-26,59.18
1992-08-27,59.54
1992-08-28,56.66
1992-08-29,56.3
1992-08-30,55.4
1992-08-31,53.24
1992-09-01,
1992-09-02,54.5
1992-09-03,47.3
1992-09-04,45.68
1992-09-05,41.18
1992-09-06,39.38
1992-09-07,45.14
1992-09-08,46.22
1992-09-09,54.86
1992-09-10,59.18
1992-09-11,54.68
1992-09-12,42.44
1992-09-13,38.66
1992-09-14,45.86
1992-09-15,50.0
1992-09-16,51.26
1992-09-17,51.62
1992-09-18,55.4
1992-09-19,50.72
1992-09-20,54.32
1992-09-21,59.9
1992-09-22,62.6
1992-09-23,53.42
1992-09-24,40.1
1992-09-25,43.52
1992-09-26,48.92
1992-09-27,50.36
1992-09-28,54.32
1992-09-29,57.74
1992-09-30,60.44
1992-10-01,51.62
1992-10-02,38.3
1992-10-03,39.92
1992-10-04,41.72
1992-10-05,44.6
1992-10-06,43.88
1992-10-07,47.12
1992-10-08,44.24
1992-10-09,44.96
1992-10-10,53.96
1992-10-11,55.22
1992-10-12,50.36
1992-10-13,40.28
1992-10-14,33.8
1992-10-15,39.56
1992-10-16,42.26
1992-10-17,45.5
1992-10-18,46.4
1992-10-19,48.74
1992-10-20,46.04
1992-10-21,40.82
1992-10-22,47.48
1992-10-23,47.48
1992-10-24,46.22
1992-10-25,46.04
1992-10-26,43.7
1992-10-27,44.6
1992-10-28,38.84
1992-10-29,34.52
1992-10-30,32.9
1992-10-31,34.34
1992-11-01,41.36
1992-11-02,35.06
1992-11-03,35.24
1992-11-04,37.58
1992-11-05,35.96
1992-11-06,44.06
1992-11-07,33.98
1992-11-08,28.76
1992-11-09,25.52
1992-11-10,24.62
1992-11-11,31.1
1992-11-12,38.48
1992-11-13,40.28
1992-11-14,40.82
1992-11-15,37.58
1992-11-16,35.42
1992-11-17,32.54
1992-11-18,32.36
1992-11-19,27.5
1992-11-20,25.88
1992-11-21,32.18
1992-11-22,27.5
1992-11-23,23.0
1992-11-24,24.44
1992-11-25,32.54
1992-11-26,36.14
1992-11-27,33.26
1992-11-28,27.32
1992-11-29,26.96
1992-11-30,33.08
1992-12-01,33.98
1992-12-02,28.76
1992-12-03,20.3
1992-12-04,23.72
1992-12-05,25.34
1992-12-06,30.92
1992-12-07,28.22
1992-12-08,27.68
1992-12-09,28.76
1992-12-10,29.3
1992-12-11,24.98
1992-12-12,23.72
1992-12-13,24.62
1992-12-14,27.68
1992-12-15,21.92
1992-12-16,22.82
1992-12-17,21.02
1992-12-18,19.22
1992-12-19,24.08
1992-12-20,29.3
1992-12-21,27.14
1992-12-22,26.96
1992-12-23,27.86
1992-12-24,24.98
1992-12-25,24.98
1992-12-26,31.64
1992-12-27,29.48
1992-12-28,25.52
1992-12-29,21.92
1992-12-30,20.48
1992-12-31,26.96
1993-01-01,20.12
1993-01-02,11.84
1993-01-03,20.84
1993-01-04,21.92
1993-01-05,22.64
1993-01-06,22.46
1993-01-07,26.6
1993-01-08,23.18
1993-01-09,13.64
1993-01-10,16.16
1993-01-11,19.04
1993-01-12,22.1
1993-01-13,26.42
1993-01-14,28.94
1993-01-15,24.62
1993-01-16,26.06
1993-01-17,22.28
1993-01-18,26.6
1993-01-19,30.56
1993-01-20,30.38
1993-01-21,29.12
1993-01-22,21.38
1993-01-23,20.48
1993-01-24,32.0
1993-01-25,32.0
1993-01-26,31.46
1993-01-27,34.16
1993-01-28,29.66
1993-01-29,26.24
1993-01-30,31.46
1993-01-31,32.9
1993-02-01,30.02
1993-02-02,36.32
1993-02-03,37.22
1993-02-04,41.54
1993-02-05,36.14
1993-02-06,34.7
1993-02-07,37.76
1993-02-08,33.8
1993-02-09,31.82
1993-02-10,30.38
1993-02-11,28.4
1993-02-12,28.22
1993-02-13,24.08
1993-02-14,24.26
1993-02-15,18.32
1993-02-16,4.82
1993-02-17,15.8
1993-02-18,31.28
1993-02-19,30.74
1993-02-20,18.68
1993-02-21,21.38
1993-02-22,25.88
1993-02-23,24.26
1993-02-24,17.06
1993-02-25,12.92
1993-02-26,17.42
1993-02-27,23.36
1993-02-28,30.2
1993-03-01,30.38
1993-03-02,35.6
1993-03-03,33.62
1993-03-04,33.98
1993-03-05,38.84
1993-03-06,42.98
1993-03-07,40.28
1993-03-08,39.92
1993-03-09,39.02
1993-03-10,35.78
1993-03-11,34.34
1993-03-12,39.38
1993-03-13,37.76
1993-03-14,35.6
1993-03-15,35.24
1993-03-16,36.14
1993-03-17,37.58
1993-03-18,37.04
1993-03-19,37.58
1993-03-20,35.06
1993-03-21,38.66
1993-03-22,42.44
1993-03-23,34.16
1993-03-24,30.56
1993-03-25,30.38
1993-03-26,32.54
1993-03-27,32.36
1993-03-28,36.32
1993-03-29,32.72
1993-03-30,35.24
1993-03-31,40.82
1993-04-01,30.56
1993-04-02,30.56
1993-04-03,35.24
1993-04-04,30.92
1993-04-05,30.74
1993-04-06,33.26
1993-04-07,39.38
1993-04-08,35.78
1993-04-09,32.18
1993-04-10,28.4
1993-04-11,28.4
1993-04-12,29.84
1993-04-13,32.0
1993-04-14,34.7
1993-04-15,34.88
1993-04-16,37.4
1993-04-17,33.08
1993-04-18,31.28
1993-04-19,34.52
1993-04-20,38.84
1993-04-21,37.22
1993-04-22,32.0
1993-04-23,32.36
1993-04-24,34.7
1993-04-25,35.78
1993-04-26,32.18
1993-04-27,37.04
1993-04-28,41.18
1993-04-29,41.9
1993-04-30,39.38
1993-05-01,40.1
1993-05-02,44.96
1993-05-03,34.7
1993-05-04,34.16
1993-05-05,41.36
1993-05-06,35.24
1993-05-07,30.74
1993-05-08,36.68
1993-05-09,46.58
1993-05-10,54.86
1993-05-11,50.18
1993-05-12,42.8
1993-05-13,42.62
1993-05-14,47.12
1993-05-15,47.84
1993-05-16,50.54
1993-05-17,52.88
1993-05-18,56.12
1993-05-19,52.16
1993-05-20,
1993-05-21,41.36
1993-05-22,45.32
1993-05-23,51.8
1993-05-24,52.52
1993-05-25,43.52
1993-05-26,45.5
1993-05-27,44.78
1993-05-28,41.0
1993-05-29,47.12
1993-05-30,48.74
1993-05-31,42.08
1993-06-01,39.56
1993-06-02,37.76
1993-06-03,41.18
1993-06-04,42.08
1993-06-05,38.66
1993-06-06,40.28
1993-06-07,38.66
1993-06-08,43.88
1993-06-09,48.38
1993-06-10,45.14
1993-06-11,33.8
1993-06-12,42.62
1993-06-13,51.98
1993-06-14,51.62
1993-06-15,45.5
1993-06-16,50.54
1993-06-17,55.76
1993-06-18,60.26
1993-06-19,60.26
1993-06-20,59.36
1993-06-21,41.9
1993-06-22,36.68
1993-06-23,43.88
1993-06-24,54.14
1993-06-25,61.52
1993-06-26,56.66
1993-06-27,47.66
1993-06-28,44.24
1993-06-29,45.86
1993-06-30,50.0
1993-07-01,51.44
1993-07-02,44.42
1993-07-03,47.66
1993-07-04,50.9
1993-07-05,50.54
1993-07-06,51.26
1993-07-07,50.0
1993-07-08,54.14
1993-07-09,52.52
1993-07-10,50.9
1993-07-11,49.1
1993-07-12,45.5
1993-07-13,44.42
1993-07-14,44.78
1993-07-15,43.88
1993-07-16,45.14
1993-07-17,46.94
1993-07-18,50.72
1993-07-19,48.92
1993-07-20,46.22
1993-07-21,45.68
1993-07-22,
1993-07-23,49.46
1993-07-24,48.92
1993-07-25,47.84
1993-07-26,52.16
1993-07-27,58.64
1993-07-28,56.12
1993-07-29,48.02
1993-07-30,50.54
1993-07-31,57.92
1993-08-01,64.22
1993-08-02,66.2
1993-08-03,
1993-08-04,64.94
1993-08-05,62.78
1993-08-06,57.38
1993-08-07,55.22
1993-08-08,56.12
1993-08-09,55.94
1993-08-10,54.14
1993-08-11,53.6
1993-08-12,53.78
1993-08-13,52.88
1993-08-14,49.46
1993-08-15,43.88
1993-08-16,45.68
1993-08-17,51.26
1993-08-18,
1993-08-19,55.58
1993-08-20,50.18
1993-08-21,52.88
1993-08-22,55.4
1993-08-23,49.28
1993-08-24,
1993-08-25,41.72
1993-08-26,48.92
1993-08-27,54.14
1993-08-28,48.92
1993-08-29,52.52
1993-08-30,58.28
1993-08-31,59.72
1993-09-01,56.66
1993-09-02,58.64
1993-09-03,57.74
1993-09-04,58.28
1993-09-05,59.36
1993-09-06,61.34
1993-09-07,61.34
1993-09-08,62.6
1993-09-09,64.04
1993-09-10,62.06
1993-09-11,53.6
1993-09-12,44.96
1993-09-13,48.02
1993-09-14,48.92
1993-09-15,44.78
1993-09-16,41.9
1993-09-17,43.16
1993-09-18,41.72
1993-09-19,41.36
1993-09-20,37.22
1993-09-21,40.46
1993-09-22,43.52
1993-09-23,
1993-09-24,48.74
1993-09-25,51.08
1993-09-26,55.22
1993-09-27,56.84
1993-09-28,59.36
1993-09-29,60.26
1993-09-30,55.94
1993-10-01,
1993-10-02,54.5
1993-10-03,56.12
1993-10-04,55.94
1993-10-05,51.8
1993-10-06,44.78
1993-10-07,37.76
1993-10-08,38.48
1993-10-09,46.94
1993-10-10,
1993-10-11,44.24
1993-10-12,44.24
1993-10-13,42.08
1993-10-14,39.92
1993-10-15,39.56
1993-10-16,
1993-10-17,37.22
1993-10-18,39.2
1993-10-19,40.64
1993-10-20,44.42
1993-10-21,44.06
1993-10-22,42.44
1993-10-23,43.34
1993-10-24,
1993-10-25,44.06
1993-10-26,
1993-10-27,46.94
1993-10-28,44.78
1993-10-29,42.26
1993-10-30,45.68
1993-10-31,37.76
1993-11-01,32.9
1993-11-02,41.36
1993-11-03,36.86
1993-11-04,29.66
1993-11-05,33.98
1993-11-06,35.6
1993-11-07,32.36
1993-11-08,32.9
1993-11-09,41.18
1993-11-10,33.08
1993-11-11,28.22
1993-11-12,27.5
1993-11-13,27.32
1993-11-14,29.3
1993-11-15,32.72
1993-11-16,35.24
1993-11-17,30.56
1993-11-18,24.98
1993-11-19,
1993-11-20,32.9
1993-11-21,32.9
1993-11-22,
1993-11-23,15.8
1993-11-24,16.34
1993-11-25,25.52
1993-11-26,
1993-11-27,38.3
1993-11-28,37.58
1993-11-29,32.72
1993-11-30,
1993-12-01,32.72
1993-12-02,30.02
1993-12-03,38.84
1993-12-04,26.6
1993-12-05,26.78
1993-12-06,
1993-12-07,31.82
1993-12-08,30.2
1993-12-09,34.34
1993-12-10,42.98
1993-12-11,30.92
1993-12-12,24.62
1993-12-13,30.74
1993-12-14,28.4
1993-12-15,26.6
1993-12-16,
1993-12-17,17.96
1993-12-18,23.54
1993-12-19,
1993-12-20,28.4
1993-12-21,25.52
1993-12-22,25.88
1993-12-23,32.0
1993-12-24,38.84
1993-12-25,31.82
1993-12-26,32.72
1993-12-27,29.66
1993-12-28,32.0
1993-12-29,34.7
1993-12-30,32.72
1993-12-31,31.1
1994-01-01,33.08
1994-01-02,35.6
1994-01-03,37.58
1994-01-04,
1994-01-05,26.96
1994-01-06,25.88
1994-01-07,29.66
1994-01-08,30.92
1994-01-09,30.38
1994-01-10,28.4
1994-01-11,32.36
1994-01-12,31.28
1994-01-13,33.8
1994-01-14,
1994-01-15,
1994-01-16,30.02
1994-01-17,34.7
1994-01-18,
1994-01-19,35.78
1994-01-20,41.18
1994-01-21,40.82
1994-01-22,39.74
1994-01-23,35.6
1994-01-24,28.04
1994-01-25,
1994-01-26,23.36
1994-01-27,22.28
1994-01-28,24.62
1994-01-29,29.12
1994-01-30,26.24
1994-01-31,27.32
1994-02-01,
1994-02-02,24.62
1994-02-03,24.8
1994-02-04,25.16
1994-02-05,27.32
1994-02-06,26.42
1994-02-07,
1994-02-08,21.38
1994-02-09,28.4
1994-02-10,24.26
1994-02-11,
1994-02-12,25.34
1994-02-13,27.68
1994-02-14,30.92
1994-02-15,
1994-02-16,38.12
1994-02-17,28.76
1994-02-18,24.08
1994-02-19,24.62
1994-02-20,25.34
1994-02-21,23.54
1994-02-22,24.44
1994-02-23,30.56
1994-02-24,
1994-02-25,32.54
1994-02-26,34.16
1994-02-27,32.0
1994-02-28,39.02
1994-03-01,46.58
1994-03-02,42.62
1994-03-03,39.38
1994-03-04,37.22
1994-03-05,
1994-03-06,32.54
1994-03-07,38.48
1994-03-08,39.56
1994-03-09,
1994-03-10,33.98
1994-03-11,34.34
1994-03-12,40.64
1994-03-13,
1994-03-14,44.06
1994-03-15,37.76
1994-03-16,31.46
1994-03-17,32.0
1994-03-18,
1994-03-19,24.08
1994-03-20,31.64
1994-03-21,25.34
1994-03-22,18.32
1994-03-23,25.52
1994-03-24,36.14
1994-03-25,36.32
1994-03-26,40.1
1994-03-27,42.08
1994-03-28,44.96
1994-03-29,39.38
1994-03-30,34.52
1994-03-31,33.08
1994-04-01,39.92
1994-04-02,37.58
1994-04-03,33.98
1994-04-04,32.54
1994-04-05,30.56
1994-04-06,31.1
1994-04-07,31.1
1994-04-08,32.9
1994-04-09,32.0
1994-04-10,35.6
1994-04-11,41.72
1994-04-12,36.14
1994-04-13,36.32
1994-04-14,
1994-04-15,
1994-04-16,49.82
1994-04-17,50.72
1994-04-18,49.28
1994-04-19,48.38
1994-04-20,48.02
1994-04-21,38.3
1994-04-22,36.32
1994-04-23,35.24
1994-04-24,33.8
1994-04-25,32.36
1994-04-26,33.44
1994-04-27,35.24
1994-04-28,41.9
1994-04-29,38.48
1994-04-30,35.96
1994-05-01,36.86
1994-05-02,39.74
1994-05-03,40.82
1994-05-04,42.98
1994-05-05,46.58
1994-05-06,54.14
1994-05-07,53.78
1994-05-08,54.68
1994-05-09,54.32
1994-05-10,55.58
1994-05-11,52.52
1994-05-12,43.88
1994-05-13,42.62
1994-05-14,45.68
1994-05-15,34.34
1994-05-16,33.62
1994-05-17,34.7
1994-05-18,38.84
1994-05-19,38.12
1994-05-20,39.74
1994-05-21,39.74
1994-05-22,44.42
1994-05-23,51.98
1994-05-24,57.38
1994-05-25,51.08
1994-05-26,44.96
1994-05-27,43.52
1994-05-28,42.44
1994-05-29,43.16
1994-05-30,51.62
1994-05-31,46.58
1994-06-01,44.6
1994-06-02,49.28
1994-06-03,46.76
1994-06-04,47.66
1994-06-05,42.26
1994-06-06,33.98
1994-06-07,37.04
1994-06-08,
1994-06-09,
1994-06-10,
1994-06-11,55.58
1994-06-12,54.86
1994-06-13,
1994-06-14,
1994-06-15,37.58
1994-06-16,
1994-06-17,41.36
1994-06-18,
1994-06-19,
1994-06-20,
1994-06-21,57.92
1994-06-22,57.74
1994-06-23,
1994-06-24,50.54
1994-06-25,
1994-06-26,
1994-06-27,
1994-06-28,61.34
1994-06-29,58.64
1994-06-30,56.84
1994-07-01,54.32
1994-07-02,52.52
1994-07-03,49.82
1994-07-04,49.82
1994-07-05,42.44
1994-07-06,
1994-07-07,63.5
1994-07-08,65.66
1994-07-09,60.8
1994-07-10,58.46
1994-07-11,60.26
1994-07-12,55.76
1994-07-13,59.0
1994-07-14,56.66
1994-07-15,59.9
1994-07-16,65.66
1994-07-17,63.14
1994-07-18,62.06
1994-07-19,67.46
1994-07-20,66.92
1994-07-21,70.16
1994-07-22,64.58
1994-07-23,65.12
1994-07-24,62.06
1994-07-25,58.46
1994-07-26,60.62
1994-07-27,63.14
1994-07-28,62.6
1994-07-29,60.26
1994-07-30,57.92
1994-07-31,59.0
1994-08-01,61.16
1994-08-02,60.08
1994-08-03,59.0
1994-08-04,57.74
1994-08-05,55.58
1994-08-06,55.76
1994-08-07,52.7
1994-08-08,49.28
1994-08-09,54.14
1994-08-10,58.64
1994-08-11,58.28
1994-08-12,58.64
1994-08-13,60.98
1994-08-14,59.54
1994-08-15,55.22
1994-08-16,52.16
1994-08-17,54.68
1994-08-18,53.6
1994-08-19,52.7
1994-08-20,51.44
1994-08-21,49.1
1994-08-22,52.16
1994-08-23,56.12
1994-08-24,54.68
1994-08-25,55.76
1994-08-26,55.58
1994-08-27,57.02
1994-08-28,51.62
1994-08-29,53.42
1994-08-30,56.48
1994-08-31,53.6
1994-09-01,51.62
1994-09-02,49.82
1994-09-03,47.3
1994-09-04,51.8
1994-09-05,58.64
1994-09-06,58.1
1994-09-07,56.66